Flag Weather past 2 weeks in Delta, British Columbia, Canada

Now
46 °F

Light rain. Mostly cloudy.


Feels Like: 40 °F
Forecast: 40 / 47 °F
Wind: 14 mph from Southwest

Location: Vancouver International Air-Port

Current Time: Nov 23, 2014 at 8:22:29 AM

Latest Report: Nov 23, 2014 at 8:00 AM


Visibility: 10 mi

Pressure: 29.95 "Hg

Humidity: 93%

Dew point: 45 °F

Location of DeltaLocation

Historic Weather in Delta — Graph

°F

Delta temperature yesterday

Maximum temperature yesterday: 50 °F (at 11:00 AM)
Minimum temperature yesterday: 39 °F (at 9:00 PM)
Average temperature yesterday: 45 °F

Past Weeks' High & Low Weather Summary

 TemperatureHumidityPressure
High52 °F (Nov 9, 2:00 PM)100% (Nov 8, 7:00 AM)30.57 "Hg (Nov 8, 7:00 AM)
Low23 °F (Nov 14, 6:00 AM)25% (Nov 11, 12:00 PM)29.26 "Hg (Nov 21, 7:00 PM)
Average40 °F79%30.11 "Hg
* Reported Nov 8 7:00 AM — Nov 23 7:01 AM, Delta, Weather by CustomWeather, © 2014

Note: Actual official high and low records may vary slightly from our data, if they occured in-between our weather recording intervals... More about our weather records

Advertising

Delta weather history for previous 24 hours

 ConditionsComfort  
Time TempWeatherWind HumidityBarometerVisibility
7:01 AM
Nov 23
46 °FLight rain. Mostly cloudy.12 mph93%29.94 "Hg15 mi
6:00 AM46 °FLight rain. Mostly cloudy.3 mph93%29.97 "Hg12 mi
5:00 AM45 °FLight rain. Overcast.13 mph93%29.96 "Hg8 mi
4:00 AM46 °FLight rain. Overcast.15 mph87%29.98 "Hg10 mi
3:00 AM46 °FLight rain. Mostly cloudy.16 mph93%30.02 "Hg12 mi
2:00 AM45 °FLight rain. Overcast.12 mph93%30.05 "Hg10 mi
1:00 AM45 °FOvercast.9 mph87%30.06 "Hg15 mi
12:00 AM43 °FMostly cloudy.9 mph93%30.06 "Hg15 mi
11:00 PM
Nov 22
43 °FMostly cloudy.7 mph87%30.06 "Hg15 mi
10:00 PM41 °FOvercast.8 mph93%30.04 "Hg15 mi
9:00 PM39 °FPassing clouds.9 mph93%30.01 "Hg20 mi
8:00 PM43 °FPassing clouds.6 mph87%30.00 "Hg20 mi
7:00 PM45 °FPartly cloudy.5 mph87%29.98 "Hg20 mi
6:00 PM43 °FPassing clouds.5 mph87%29.96 "Hg15 mi
5:00 PM45 °FPartly cloudy.2 mph87%29.93 "Hg30 mi
4:00 PM46 °FPartly sunny.9 mph87%29.90 "Hg30 mi
3:00 PM48 °FPartly sunny.7 mph82%29.88 "Hg30 mi
2:00 PM48 °FScattered clouds.8 mph82%29.84 "Hg30 mi
1:00 PM48 °FScattered clouds.8 mph82%29.81 "Hg30 mi
12:00 PM50 °FBroken clouds.3 mph76%29.78 "Hg25 mi
11:00 AM50 °FBroken clouds.2 mph71%29.75 "Hg25 mi
10:00 AM48 °FScattered clouds.6 mph82%29.71 "Hg25 mi
9:00 AM45 °FPartly sunny.3 mph87%29.69 "Hg20 mi
8:00 AM43 °FBroken clouds.3 mph93%29.65 "Hg15 mi
Weather by CustomWeather, © 2014

See weather overviewHow to use our weather pages